DO2KZW-13 Weather Reports


Display with metric or nautical units.
time (UTC)temp
F
wind
direction
speed
MPH
gust
MPH
rain 1hr
in
rain 24hr
in
rain mn
in
humidity
%
barometer
mb
20210612172520 75 360 0.0 0.0 0.00 0.00 0.00 31 1018.4
20210612162520 78 360 0.0 0.0 0.00 0.00 0.00 28 1018.4
20210612152520 80 360 0.0 0.0 0.00 0.00 0.00 24 1018.4
20210612142520 82 360 0.0 0.0 0.00 0.00 0.00 26 1018.4
20210612132520 83 360 0.0 0.0 0.00 0.00 0.00 24 1018.4
20210612122520 85 360 0.0 0.0 0.00 0.00 0.00 25 1017.4
20210612112521 86 360 0.0 0.0 0.00 0.00 0.00 28 1018.4
20210612102521 85 360 0.0 0.0 0.00 0.00 0.00 30 1018.4
20210612092520 82 360 0.0 0.0 0.00 0.00 0.00 35 1018.4
20210612082520 76 360 0.0 0.0 0.00 0.00 0.00 46 1018.4
20210612072521 70 360 0.0 0.0 0.00 0.00 0.00 52 1018.4
20210612062520 65 360 0.0 0.0 0.00 0.00 0.00 57 1018.4
20210612052520 63 360 0.0 0.0 0.00 0.00 0.00 62 1018.4
20210612042521 62 360 0.0 0.0 0.00 0.00 0.00 59 1018.4
20210612032521 62 360 0.0 0.0 0.00 0.00 0.00 58 1017.4
20210612022521 63 360 0.0 0.0 0.00 0.00 0.00 55 1017.4
20210612012520 64 360 0.0 0.0 0.00 0.00 0.00 53 1018.4
20210612002520 65 360 0.0 0.0 0.00 0.00 0.00 49 1018.4
20210611232520 67 360 0.0 0.0 0.00 0.00 0.00 47 1018.4
20210611222521 68 360 0.0 0.0 0.00 0.00 0.00 45 1018.4
20210611212521 69 360 0.0 0.0 0.00 0.00 0.00 43 1017.4
20210611202521 71 360 0.0 0.0 0.00 0.00 0.00 40 1017.4
20210611192521 73 360 0.0 0.0 0.00 0.00 0.00 35 1017.4
20210611182521 75 360 0.0 0.0 0.00 0.00 0.00 32 1017.4